Location: ?????????
(38.5999°N, 22.7695°E)
Time: 09:49:14
(UTC+00:00)

Cosmos 2184 Rocket - Pass Details

Date: 23 May 2024
Orbit: 959 x 1001 km, 82.9° (Epoch: 23 June)

Event Time Altitude Azimuth Distance (km) Brightness Sun altitude
Exits shadow 01:21:56 19° 183° (S) 2,145 5.4 -17.8°
Maximum altitude 01:26:37 86° 96° (E) 982 4.0 -17.2°
Drops below altitude 10° 01:32:55 10° 8° (N) 2,742 7.1 -16.3°
Sets 01:35:27 0° 8° (N) 3,700 7.9 -15.9°
